Miscellaneous Local Product
Issued by NWS Hastings, NE

Home | Current Version | Previous Version | Text Only | Print | Product List | Glossary On
Versions: 1 2 3 4 5 6 7 8 9 10 11 12 13 14 15 16 17 18 19 20 21 22 23 24 25 26 27 28 29 30 31 32 33 34 35 36 37 38 39 40 41 42 43 44 45 46 47 48 49 50
166
AXUS43 KGID 262302
MISGRI

GID CWA HOURLY WEATHER ROUNDUP
NATIONAL WEATHER SERVICE HASTINGS NE
600 PM CDT SUN MAR 26 2017

NOTE: "FAIR" INDICATES FEW OR NO CLOUDS BELOW 12,000 FEET WITH NO
SIGNIFICANT WEATHER AND/OR OBSTRUCTIONS TO VISIBILITY.

...SOUTH CENTRAL NEBRASKA...

CITY           SKY/WX    TMP DP  RH WIND       PRES   REMARKS
GRAND ISLAND   CLOUDY    49  45  86 NE9       29.88S
HASTINGS       CLOUDY    49  43  80 E5        29.89R
KEARNEY        CLOUDY    48  39  71 CALM      29.89R
ORD            PTSUNNY   52  41  66 NE8       29.86F
YORK           CLOUDY    48  45  87 NE9       29.87F
AURORA         CLOUDY    49  45  88 NE7       29.87S
LEXINGTON      MOSUNNY   53  42  66 S10       29.87R
HOLDREGE       PTSUNNY   49  40  72 E5        29.89R
HEBRON         CLOUDY    49  43  81 NE6       29.89R

...NEBRASKA PANHANDLE...

CITY           SKY/WX    TMP DP  RH WIND       PRES   REMARKS
CHADRON        CLOUDY    49  39  68 N6        29.93S
ALLIANCE       CLOUDY    54  36  50 N10       29.89R
SCOTTSBLUFF    CLOUDY    53  37  54 N12       29.92S
SIDNEY         MOSUNNY   55  36  48 N8        29.90S

...WESTERN AND NORTH CENTRAL NEBRASKA...

CITY           SKY/WX    TMP DP  RH WIND       PRES   REMARKS
VALENTINE      CLOUDY    51  36  56 N8        29.90R
AINSWORTH      MOSUNNY   52  42  66 NE7       29.89R
ONEILL         CLOUDY    46  41  84 NE5       29.91S
BROKEN BOW     MOSUNNY   56  40  55 NE10      29.84S
IMPERIAL       CLOUDY    56  39  53 N8        29.87R
NORTH PLATTE   PTSUNNY   60  36  40 VRB5      29.85S
MCCOOK         CLOUDY    53  41  63 S3        29.87R

...EASTERN NEBRASKA...

CITY           SKY/WX    TMP DP  RH WIND       PRES   REMARKS
NORFOLK        CLOUDY    47  40  76 N9        29.89F
SO SIOUX CITY  CLOUDY    47  40  76 N10       29.90F
TEKAMAH        CLOUDY    49  41  74 N8        29.90S
COLUMBUS       CLOUDY    48  43  81 N9        29.89F
ALBION         CLOUDY    49  42  76 NE8       29.88F
OMAHA EPPLEY   CLOUDY    49  41  74 N6        29.90S
OFFUTT AFB     CLOUDY    50  42  73 N7        29.88F
MILLARD        CLOUDY    51  44  75 N3        29.89F
LINCOLN        CLOUDY    49  42  77 NE8       29.89S
NEBRASKA CITY  CLOUDY    47  42  82 NE7       29.87F
BEATRICE       CLOUDY    48  43  83 NE6       29.88R
FALLS CITY     CLOUDY    48  43  82 N7        29.88F

...NORTHERN KANSAS...

CITY           SKY/WX    TMP DP  RH WIND       PRES   REMARKS
GOODLAND       CLOUDY    47  43  86 N7        29.89R
HILL CITY      CLOUDY    47  45  93 NE3       29.89R
NORTON         CLOUDY    48  41  76 CALM      29.87R
PHILLIPSBURG   CLOUDY    50  45  81 CALM      29.88R
HAYS           LGT RAIN  46  44  93 E7        29.89R FOG
RUSSELL        CLOUDY    46  44  93 NE8       29.87R
CONCORDIA      LGT RAIN  49  45  86 S3        29.92R
SALINA         RAIN      51  47  86 NE7       29.90S FOG
TOPEKA         CLOUDY    52  46  80 NE12      29.86S



USA.gov is the U.S. government's official web portal to all federal, state and local government web resources and services.